Date String (YYYY-MM-DD hh:mm:ss) UTC,Instrument flags,absolute air pressure of the measurement (hPa),sample flow rate (lpm),inlet stack bypass flow (lpm),air temperature of the measurement (°C),ambient temperature measured by the external sensor (°C),aerosol sample conditioner tube jacket temperature (°C),OPC LED temperature (°C),internal box temperature (°C),relative humidity of the measurement (%),span deviation,mass concentration of particles derived from Lorenz-Mie calculation of OPC scattering (μg/m³),mass concentration of particles derived from Lorenz-Mie calculation of OPC scattering (μg/m³),mass concentration of particles derived from Lorenz-Mie calculation of OPC scattering (μg/m³)
DateTimeUTC,F1_M11,P_M11,Q1_M11,Q2_M11,T1_M11,T2_M11,T3_M11,T4_M11,T5_M11,U1_M11,ZSPAN_M11,X0_M11,X2_M11,X1_M11
2023-09-12 06:00:00,SystemResetWarning,0836.1,5.00,000.00,028.6,027.2,000.0,036.9,030.1,28.7,-002.1,0012.57,0006.19,0005.38
2023-09-12 06:01:00,SystemResetWarning,0836.1,5.01,000.00,028.6,027.2,000.0,036.9,030.2,28.5,-002.1,0012.42,0006.14,0005.37
2023-09-12 06:02:00,SystemResetWarning,0836.1,5.00,000.00,028.6,027.2,000.0,036.9,030.2,28.3,-002.2,0012.19,0006.07,0005.35
2023-09-12 06:03:00,SystemResetWarning,0836.1,5.00,000.00,028.6,027.3,000.0,036.9,030.2,28.2,-002.2,0012.36,0006.07,0005.33
2023-09-12 06:04:00,SystemResetWarning,0836.1,5.00,000.00,028.6,027.3,000.0,036.9,030.2,28.1,-002.2,0012.31,0006.04,0005.32
2023-09-12 06:05:00,SystemResetWarning,0836.1,5.00,000.00,028.6,027.3,000.0,036.9,030.2,28.0,-001.7,0012.29,0005.99,0005.31
2023-09-12 06:06:00,SystemResetWarning,0836.1,5.00,000.00,028.6,027.3,000.0,037.0,030.2,27.9,-001.5,0012.90,0005.98,0005.30
2023-09-12 06:07:00,SystemResetWarning,0836.1,5.01,000.00,028.7,027.3,000.0,037.0,030.3,27.8,-001.7,0012.74,0005.95,0005.30
2023-09-12 06:08:00,SystemResetWarning,0836.1,5.00,000.00,028.7,027.3,000.0,037.0,030.3,27.7,-000.7,0012.57,0005.97,0005.30
2023-09-12 06:09:00,SystemResetWarning,0836.1,5.00,000.00,028.7,027.4,000.0,037.0,030.3,27.6,-000.6,0012.23,0005.94,0005.30
2023-09-12 06:10:00,SystemResetWarning,0836.1,5.00,000.00,028.7,027.4,000.0,037.0,030.3,27.4,-000.5,0012.63,0005.95,0005.31
2023-09-12 06:11:00,SystemResetWarning,0836.1,5.00,000.00,028.7,027.4,000.0,037.0,030.3,27.4,-000.6,0012.38,0005.97,0005.34
2023-09-12 06:12:00,SystemResetWarning,0836.1,5.00,000.00,028.7,027.4,000.0,037.0,030.3,27.4,-000.7,0012.10,0005.97,0005.35
2023-09-12 06:13:00,SystemResetWarning,0836.1,5.00,000.00,028.8,027.4,000.0,037.0,030.3,27.0,-000.5,0012.21,0006.01,0005.37
2023-09-12 06:14:00,SystemResetWarning,0836.1,5.00,000.00,028.8,027.4,000.0,037.1,030.4,27.0,-000.2,0012.05,0006.01,0005.39
2023-09-12 06:15:00,SystemResetWarning,0836.1,5.00,000.00,028.8,027.4,000.0,037.1,030.4,27.0,0000.0,0012.58,0006.05,0005.41
2023-09-12 06:16:00,SystemResetWarning,0836.1,5.00,000.00,028.8,027.4,000.0,037.1,030.4,26.9,-000.6,0012.70,0006.10,0005.45
2023-09-12 06:17:00,SystemResetWarning,0836.1,5.00,000.00,028.8,027.4,000.0,037.1,030.4,26.9,-000.9,0012.17,0006.12,0005.49
2023-09-12 06:18:00,SystemResetWarning,0836.1,5.00,000.00,028.8,027.4,000.0,037.1,030.4,26.7,-000.6,0012.42,0006.12,0005.51
2023-09-12 06:19:00,SystemResetWarning,0836.1,5.00,000.00,028.8,027.5,000.0,037.1,030.4,26.5,-000.8,0011.68,0006.11,0005.54
2023-09-12 06:20:00,SystemResetWarning,0836.1,5.00,000.00,028.8,027.5,000.0,037.1,030.4,26.6,-000.8,0011.96,0006.17,0005.57
2023-09-12 06:21:00,SystemResetWarning,0836.1,5.00,000.00,028.9,027.5,000.0,037.1,030.5,26.6,-000.7,0011.60,0006.17,0005.59
2023-09-12 06:22:00,SystemResetWarning,0836.1,5.00,000.00,028.9,027.5,000.0,037.1,030.5,26.6,-000.6,0011.75,0006.21,0005.58
2023-09-12 06:23:00,SystemResetWarning,0836.1,5.00,000.00,028.9,027.5,000.0,037.2,030.5,26.7,-000.2,0011.66,0006.21,0005.58
2023-09-12 06:24:00,SystemResetWarning,0836.1,5.00,000.00,028.9,027.5,000.0,037.2,030.5,26.6,0000.1,0011.70,0006.22,0005.61
2023-09-12 06:25:00,SystemResetWarning,0836.1,5.00,000.00,028.9,027.5,000.0,037.2,030.5,26.5,-000.1,0011.83,0006.24,0005.64
2023-09-12 06:26:00,SystemResetWarning,0836.1,5.00,000.00,028.9,027.5,000.0,037.2,030.5,26.3,-000.5,0011.24,0006.25,0005.68
2023-09-12 06:27:00,SystemResetWarning,0836.0,5.00,000.00,028.9,027.5,000.0,037.2,030.5,26.1,-000.2,0011.39,0006.29,0005.71
2023-09-12 06:28:00,SystemResetWarning,0836.0,5.01,000.00,028.9,027.5,000.0,037.2,030.5,26.1,-000.1,0011.18,0006.31,0005.75
2023-09-12 06:29:00,SystemResetWarning,0836.0,5.01,000.00,028.9,027.5,000.0,037.2,030.5,26.2,-000.1,0011.16,0006.37,0005.79
2023-09-12 06:30:00,SystemResetWarning,0836.0,4.99,000.00,028.9,027.5,000.0,037.2,030.5,26.3,-000.3,0011.14,0006.38,0005.81
2023-09-12 06:31:00,SystemResetWarning,0836.0,4.99,000.00,029.0,027.5,000.0,037.2,030.5,26.4,-000.5,0010.86,0006.41,0005.84
2023-09-12 06:32:00,SystemResetWarning,0835.9,5.01,000.00,029.0,027.5,000.0,037.3,030.5,26.3,-000.7,0010.55,0006.44,0005.87
2023-09-12 06:33:00,SystemResetWarning,0835.9,5.01,000.00,029.0,027.6,000.0,037.3,030.6,26.2,-000.1,0010.42,0006.44,0005.91
2023-09-12 06:34:00,SystemResetWarning,0835.9,5.00,000.00,029.0,027.5,000.0,037.3,030.5,26.1,-000.1,0010.56,0006.47,0005.94
2023-09-12 06:35:00,SystemResetWarning,0835.9,4.99,000.00,029.0,027.5,000.0,037.3,030.5,25.9,-000.5,0010.62,0006.50,0005.96
2023-09-12 06:36:00,SystemResetWarning,0835.9,5.00,000.00,029.0,027.5,000.0,037.3,030.5,25.8,-000.4,0010.54,0006.53,0005.98
2023-09-12 06:37:00,SystemResetWarning,0835.9,5.00,000.00,029.0,027.5,000.0,037.3,030.5,25.8,-000.1,0010.54,0006.53,0005.98
2023-09-12 06:38:00,SystemResetWarning,0835.9,5.00,000.00,029.0,027.5,000.0,037.3,030.5,25.9,-000.1,0010.41,0006.50,0005.97
2023-09-12 06:39:00,SystemResetWarning,0835.9,5.00,000.00,029.0,027.5,000.0,037.3,030.5,25.9,-000.1,0010.47,0006.45,0005.95
2023-09-12 06:40:00,SystemResetWarning,0835.9,4.99,000.00,029.0,027.5,000.0,037.3,030.5,26.1,-000.1,0010.30,0006.43,0005.94
2023-09-12 06:41:00,SystemResetWarning,0835.9,5.00,000.00,029.0,027.5,000.0,037.3,030.6,26.1,0000.2,0010.26,0006.42,0005.94
2023-09-12 06:42:00,SystemResetWarning,0835.9,5.01,000.00,029.0,027.5,000.0,037.3,030.6,25.9,0000.4,0010.57,0006.41,0005.93
2023-09-12 06:43:00,SystemResetWarning,0835.9,5.00,000.00,029.0,027.6,000.0,037.3,030.6,25.8,0000.6,0010.47,0006.35,0005.92
2023-09-12 06:44:00,SystemResetWarning,0835.9,5.00,000.00,029.0,027.6,000.0,037.3,030.6,25.9,0000.5,0010.39,0006.33,0005.90
2023-09-12 06:45:00,SystemResetWarning,0835.9,5.01,000.00,029.0,027.6,000.0,037.4,030.6,25.8,0000.2,0010.62,0006.26,0005.87
2023-09-12 06:46:00,SystemResetWarning,0835.9,5.01,000.00,029.0,027.6,000.0,037.4,030.6,25.6,0000.2,0010.66,0006.21,0005.84
2023-09-12 06:47:00,SystemResetWarning,0835.9,5.01,000.00,029.0,027.6,000.0,037.4,030.6,25.7,-000.1,0011.00,0006.17,0005.82
2023-09-12 06:48:00,SystemResetWarning,0835.9,4.99,000.00,029.0,027.6,000.0,037.4,030.6,25.6,-000.4,0011.37,0006.10,0005.79
2023-09-12 06:49:00,SystemResetWarning,0835.9,4.99,000.00,029.0,027.6,000.0,037.4,030.6,25.6,-000.8,0011.30,0006.06,0005.74
2023-09-12 06:50:00,SystemResetWarning,0835.9,4.99,000.00,029.0,027.6,000.0,037.4,030.6,25.5,-000.7,0011.03,0006.05,0005.73
2023-09-12 06:51:00,SystemResetWarning,0835.9,5.00,000.00,029.1,027.6,000.0,037.4,030.6,25.6,-000.8,0010.96,0006.03,0005.70
2023-09-12 06:52:00,SystemResetWarning,0835.9,5.01,000.00,029.1,027.6,000.0,037.4,030.6,25.5,-000.9,0010.75,0006.02,0005.69
2023-09-12 06:53:00,SystemResetWarning,0835.9,5.00,000.00,029.1,027.6,000.0,037.4,030.6,25.4,-001.0,0010.42,0005.98,0005.66
2023-09-12 06:54:00,SystemResetWarning,0835.9,5.00,000.00,029.1,027.6,000.0,037.4,030.6,25.4,-001.1,0010.43,0005.93,0005.61
2023-09-12 06:55:00,SystemResetWarning,0835.9,5.00,000.00,029.1,027.6,000.0,037.4,030.6,25.4,-001.7,0010.47,0005.89,0005.55
2023-09-12 06:56:00,SystemResetWarning,0835.9,5.00,000.00,029.1,027.6,000.0,037.4,030.6,25.4,-002.0,0010.02,0005.87,0005.52
2023-09-12 06:57:00,SystemResetWarning,0835.9,5.00,000.00,029.1,027.6,000.0,037.4,030.7,25.4,-002.2,0010.26,0005.86,0005.48
2023-09-12 06:58:00,SystemResetWarning,0835.9,5.00,000.00,029.1,027.6,000.0,037.4,030.7,25.6,-002.0,0009.86,0005.79,0005.44
2023-09-12 06:59:00,SystemResetWarning,0835.9,5.00,000.00,029.1,027.6,000.0,037.4,030.7,25.5,-001.8,0009.29,0005.79,0005.43
